[[{"header":{"parameterUnit":"m.s-1","parameterCategory":2,"la1":30.2991,"la2":30.254,"lo1":-89.0895,"lo2":-89.0444,"dy":0.0017,"dx":0.0017,"nx":28,"ny":28,"refTime":"2023-09-05T21:00:00:Z","depth":"0","parameterNumber":2,"parameterNumberName":"U-component_of_CURRENTS"},"data":[0,0,0,0,0,0,0,0,0,0,0,0,0,0,0,0,0,0,0,0,0,0,0,0,0,0,0,0,0,0,0,0,0,0,0,0,0,0,0,0,0,0,0,0,0,0,0,0,0,0,0,0,0,0,0,0,0,0,0.2399,0.2399,0,0.2355,0.2355,0.2354,0.2367,0.2368,0.2369,0.2371,0.2361,0.236,0.2359,0,0,0,0,0,0,0,0,0,0,0,0,0,0.24,0.24,0.2399,0.2399,0.2398,0.2356,0.2355,0.2354,0.2367,0.2368,0.237,0.2371,0.2362,0.236,0.2359,0,0,0,0,0,0,0,0,0,0,0,0,0,0.238,0.24,0.2399,0.2402,0.2402,0.2356,0.2355,0.2354,0.2367,0.2368,0.237,0.2372,0.2362,0.236,0.2358,0.2312,0,0,0.2353,0.2352,0,0,0,0,0,0,0,0,0.2381,0.238,0.2402,0.2401,0.2401,0.2371,0.2352,0.2342,0.2366,0.2377,0.2371,0.2373,0.2368,0.2366,0.235,0.2312,0.2312,0.2352,0.2351,0.235,0.235,0,0,0,0,0,0,0,0.2383,0.2381,0.2379,0.2401,0.2401,0.2373,0.2373,0.2349,0.2362,0.2377,0.2378,0.2376,0.2368,0.2351,0.235,0.2311,0.2352,0.2351,0.2349,0.2349,0.2318,0.2319,0,0,0,0,0,0,0.2396,0.2383,0.2381,0.2378,0.2398,0.2372,0.2372,0.2377,0.2362,0.2362,0.2375,0.2377,0.2354,0.2352,0.235,0.2374,0.235,0.2348,0.2347,0.2318,0.2318,0.2319,0,0,0,0,0,0,0.2396,0.2397,0.2383,0.2381,0.2378,0.2371,0.2376,0.2375,0.2371,0.2361,0.2361,0.2374,0.2355,0.2352,0.2344,0.2371,0.2348,0.2346,0.2318,0.2318,0.2319,0.2371,0,0,0,0,0,0,0.2397,0.2397,0.239,0.2382,0.2379,0.2366,0.2375,0.2373,0.2368,0.237,0.236,0.236,0.2356,0.2347,0.2342,0.2368,0.2344,0.2317,0.2318,0.2318,0.2369,0.2373,0.2377,0,0,0,0,0,0.2397,0.2385,0.239,0.2389,0.2375,0.2365,0.236,0.2359,0.2366,0.2361,0.236,0.2361,0.2349,0.2345,0.2339,0.2365,0.2317,0.2318,0.2318,0.2367,0.2373,0.2377,0,0,0,0,0,0,0.2381,0.2385,0.2391,0.2382,0.238,0.2369,0.2356,0.2359,0.235,0.2356,0.2351,0.2351,0.2358,0.2344,0.234,0.2358,0.2338,0.2338,0.2377,0.2382,0.2386,0.2407,0.2343,0,0,0,0,0,0.2375,0.2371,0.2374,0.2367,0.2366,0.2361,0.2352,0.2358,0.2354,0.2352,0.2346,0.2345,0.2351,0.2353,0.2345,0.2341,0.2363,0.2358,0.2362,0.2365,0.2378,0.2412,0.2421,0.2322,0.2322,0.2322,0,0,0.2368,0.2369,0.2367,0.2363,0.2359,0.2368,0.236,0.2355,0.2375,0.2351,0.2362,0.2351,0.2351,0.236,0.2363,0.2356,0.2412,0.2367,0.237,0.2381,0.2414,0.2424,0.2433,0.2322,0.2322,0.2322,0,0,0.2362,0.2355,0.2356,0.2356,0.2357,0.2361,0.2365,0.2361,0.237,0.2369,0.2374,0.2379,0.2365,0.2384,0.2391,0.2407,0.2429,0.2405,0.2449,0.2482,0.2491,0.2499,0.2574,0.2588,0.2413,0.2413,0.2413,0,0.2356,0.2363,0.2352,0.2359,0.237,0.2367,0.2386,0.2387,0.2384,0.2401,0.2383,0.2393,0.2384,0.2429,0.244,0.242,0.2453,0.2433,0.249,0.2498,0.2505,0.258,0.2595,0.2416,0.2415,0.2415,0.2415,0,0.2357,0.2366,0.2366,0.2387,0.2393,0.2402,0.242,0.2428,0.2434,0.2444,0.2469,0.2451,0.247,0.2466,0.2457,0.2513,0.2527,0.2489,0.2482,0.2519,0.2595,0.261,0.2419,0.2419,0.2418,0.2417,0,0,0.235,0.2367,0.2371,0.2394,0.2413,0.2425,0.246,0.2496,0.253,0.252,0.2565,0.2565,0.2559,0.2566,0.2558,0.2579,0.2664,0.2561,0.2561,0.2647,0.2778,0.2851,0.2875,0.2635,0.2637,0.2639,0.2823,0,0.2365,0.2392,0.24,0.2443,0.2462,0.2483,0.2519,0.2552,0.2569,0.2602,0.2609,0.2636,0.26,0.2613,0.2632,0.2652,0.27,0.262,0.272,0.2724,0.2793,0.2893,0.2795,0.2955,0.2838,0.284,0.2842,0,0.2368,0.2391,0.2432,0.2488,0.25,0.2526,0.2593,0.2623,0.2673,0.2687,0.2718,0.2722,0.2779,0.2717,0.2806,0.276,0.2782,0.2789,0.2795,0.2855,0.2824,0.2891,0.2987,0.292,0.2865,0.2863,0.2862,0,0.2372,0.2418,0.2457,0.2472,0.2527,0.2559,0.2595,0.2647,0.2692,0.2747,0.2787,0.2833,0.2877,0.2898,0.2939,0.2877,0.3036,0.295,0.3048,0.3055,0.2989,0.2986,0.3037,0.3017,0.3016,0.3016,0.3015,0,0.2381,0.2413,0.246,0.2479,0.2534,0.2571,0.2633,0.2671,0.2742,0.2799,0.2833,0.29,0.2919,0.3007,0.3005,0.312,0.3108,0.3101,0.3116,0.3009,0.3006,0.2956,0.2912,0.3023,0.3021,0.302,0.3018,0,0.2372,0.2401,0.2445,0.251,0.2531,0.2568,0.2653,0.2697,0.2771,0.285,0.2881,0.2993,0.3123,0.3177,0.3249,0.3241,0.3239,0.3341,0.3248,0.325,0.3253,0.3216,0.3174,0.308,0.3479,0.3482,0.3485,0,0.2369,0.2388,0.2455,0.2479,0.2506,0.2565,0.2605,0.2691,0.2742,0.2904,0.2946,0.3123,0.3225,0.3423,0.346,0.3551,0.3382,0.3495,0.3347,0.3294,0.3262,0.3078,0.2985,0.3289,0.3289,0.329,0.329,0,0.236,0.2381,0.2416,0.2463,0.2505,0.2558,0.2624,0.2671,0.2776,0.2879,0.3023,0.3132,0.3357,0.3434,0.3592,0.3603,0.3346,0.3514,0.3452,0.3142,0.2948,0.285,0.3159,0.3296,0.3295,0.3295,0.3295,0.3294,0.2347,0.2362,0.2401,0.2447,0.2488,0.253,0.2548,0.2632,0.273,0.2833,0.2994,0.3112,0.3299,0.3525,0.3535,0.3528,0.3447,0.3409,0.3384,0.3215,0.3068,0.3441,0.3594,0.3595,0.3596,0.3596,0.3597,0,0.2325,0.2344,0.2383,0.2419,0.2441,0.2486,0.2543,0.2542,0.2613,0.2756,0.2873,0.3058,0.3191,0.331,0.3448,0.3386,0.3149,0.3306,0.2977,0.29,0.3241,0.3177,0.3254,0.3254,0.3254,0.3254,0.3254,0.3254,0.2313,0.2327,0.235,0.2364,0.2386,0.237,0.2385,0.2397,0.2466,0.256,0.2657,0.2779,0.3063,0.3289,0.3303,0.3228,0.2963,0.2885,0.2847,0.3062,0.3066,0.3069,0.2997,0.3035,0.3034,0.234,0.2335,0.2332]},{"header":{"parameterUnit":"m.s-1","parameterCategory":2,"la1":30.2991,"la2":30.254,"lo1":-89.0895,"lo2":-89.0444,"dy":0.0017,"dx":0.0017,"nx":28,"ny":28,"refTime":"2023-09-05T21:00:00:Z","depth":"0","parameterNumber":3,"parameterNumberName":"V-component_of_CURRENTS"},"data":[0,0,0,0,0,0,0,0,0,0,0,0,0,0,0,0,0,0,0,0,0,0,0,0,0,0,0,0,0,0,0,0,0,0,0,0,0,0,0,0,0,0,0,0,0,0,0,0,0,0,0,0,0,0,0,0,0,0,-0.052,-0.052,0,-0.0538,-0.0538,-0.0538,-0.0557,-0.0557,-0.0558,-0.0558,-0.0583,-0.0583,-0.0584,0,0,0,0,0,0,0,0,0,0,0,0,0,-0.0475,-0.0476,-0.052,-0.052,-0.052,-0.0538,-0.0538,-0.0538,-0.0557,-0.0557,-0.0558,-0.0558,-0.0583,-0.0583,-0.0584,0,0,0,0,0,0,0,0,0,0,0,0,0,-0.0493,-0.0476,-0.052,-0.0532,-0.0534,-0.0538,-0.0538,-0.0538,-0.0557,-0.0557,-0.0558,-0.0558,-0.0583,-0.0583,-0.0584,-0.0576,0,0,-0.0585,-0.0585,0,0,0,0,0,0,0,0,-0.0492,-0.0494,-0.053,-0.0532,-0.0533,-0.0546,-0.0531,-0.0551,-0.0557,-0.0547,-0.0558,-0.0559,-0.0572,-0.0573,-0.0574,-0.0577,-0.0578,-0.0585,-0.0586,-0.0586,-0.0586,0,0,0,0,0,0,0,-0.0491,-0.0493,-0.0526,-0.0531,-0.0532,-0.0528,-0.0532,-0.0535,-0.0555,-0.0548,-0.0549,-0.0553,-0.0572,-0.0573,-0.0574,-0.0579,-0.0585,-0.0586,-0.0586,-0.0586,-0.0614,-0.0614,0,0,0,0,0,0,-0.0491,-0.0492,-0.0525,-0.0526,-0.0515,-0.0529,-0.0533,-0.0541,-0.0555,-0.0558,-0.0552,-0.0554,-0.0572,-0.0574,-0.0575,-0.0578,-0.0586,-0.0586,-0.0586,-0.0613,-0.0614,-0.0614,0,0,0,0,0,0,-0.049,-0.0494,-0.0524,-0.051,-0.0514,-0.0529,-0.0538,-0.0541,-0.0544,-0.0559,-0.0562,-0.0554,-0.0573,-0.0575,-0.0577,-0.0579,-0.0586,-0.0587,-0.0613,-0.0613,-0.0614,-0.0576,0,0,0,0,0,0,-0.0489,-0.0494,-0.0492,-0.0511,-0.0515,-0.0518,-0.0538,-0.0541,-0.0546,-0.0548,-0.0561,-0.0564,-0.0573,-0.0577,-0.0578,-0.0579,-0.0587,-0.0612,-0.0613,-0.0614,-0.0576,-0.0575,-0.0574,0,0,0,0,0,-0.0487,-0.0476,-0.0492,-0.0496,-0.0515,-0.0517,-0.0518,-0.053,-0.0546,-0.0537,-0.0553,-0.0563,-0.0584,-0.0577,-0.0578,-0.058,-0.0612,-0.0613,-0.0614,-0.0577,-0.0575,-0.0574,0,0,0,0,0,0,-0.045,-0.0477,-0.0495,-0.0493,-0.0504,-0.0521,-0.0508,-0.0529,-0.0534,-0.0536,-0.0558,-0.0561,-0.0566,-0.058,-0.0572,-0.0594,-0.0604,-0.0605,-0.0576,-0.0574,-0.0573,-0.0558,-0.0588,0,0,0,0,0,-0.0444,-0.0442,-0.0472,-0.0466,-0.047,-0.0493,-0.0494,-0.0509,-0.052,-0.0523,-0.0537,-0.0556,-0.0571,-0.0577,-0.0587,-0.0591,-0.0607,-0.0599,-0.0597,-0.0596,-0.0587,-0.0623,-0.0624,-0.0617,-0.0617,-0.0617,0,0,-0.0426,-0.044,-0.0439,-0.0457,-0.0465,-0.0457,-0.0494,-0.0492,-0.049,-0.0524,-0.0518,-0.0545,-0.0571,-0.0577,-0.0582,-0.0588,-0.0605,-0.0597,-0.0595,-0.0588,-0.0624,-0.0625,-0.0625,-0.0618,-0.0618,-0.0618,0,0,-0.0371,-0.0404,-0.0376,-0.0387,-0.0401,-0.0424,-0.0425,-0.0447,-0.046,-0.0462,-0.0496,-0.0524,-0.0533,-0.0562,-0.0576,-0.0575,-0.0595,-0.0585,-0.0565,-0.06,-0.06,-0.0601,-0.061,-0.0612,-0.0586,-0.0586,-0.0586,0,-0.0344,-0.0331,-0.0367,-0.0344,-0.0352,-0.0407,-0.0387,-0.0404,-0.0427,-0.0441,-0.0451,-0.0502,-0.0526,-0.0553,-0.0557,-0.057,-0.0584,-0.0565,-0.0596,-0.0597,-0.0599,-0.0608,-0.0611,-0.0584,-0.0584,-0.0585,-0.0585,0,-0.0271,-0.0266,-0.0249,-0.0251,-0.0261,-0.0257,-0.0297,-0.0313,-0.0346,-0.0374,-0.0408,-0.045,-0.0484,-0.0506,-0.0527,-0.0559,-0.0563,-0.0587,-0.0595,-0.0597,-0.0607,-0.061,-0.0582,-0.0582,-0.0583,-0.0583,0,0,-0.0199,-0.02,-0.0193,-0.0191,-0.0222,-0.0225,-0.0232,-0.0264,-0.0272,-0.0315,-0.0326,-0.0384,-0.0428,-0.0449,-0.0497,-0.0535,-0.0559,-0.0561,-0.0564,-0.056,-0.0617,-0.0545,-0.0541,-0.059,-0.059,-0.0591,-0.0615,0,-0.0133,-0.0086,-0.0107,-0.0078,-0.007,-0.0131,-0.0133,-0.0173,-0.0215,-0.0238,-0.0316,-0.0338,-0.0401,-0.0419,-0.0471,-0.0529,-0.0568,-0.0549,-0.0625,-0.0626,-0.0554,-0.0543,-0.0507,-0.0519,-0.0619,-0.0619,-0.0619,0,-0.0053,-0.0042,-0.0002,-0.0018,-0.0019,-0.0014,-0.0056,-0.0064,-0.0123,-0.0152,-0.021,-0.0263,-0.0326,-0.0377,-0.0486,-0.0469,-0.0539,-0.0592,-0.0595,-0.0541,-0.056,-0.0538,-0.0521,-0.0703,-0.0625,-0.0624,-0.0624,0,0.0003,0.0029,0.0051,0.0048,0.0028,0.0027,0.0009,-0.004,-0.0039,-0.0098,-0.009,-0.0196,-0.0215,-0.0332,-0.0427,-0.0464,-0.0526,-0.0594,-0.0599,-0.0595,-0.0584,-0.0576,-0.0742,-0.0677,-0.0677,-0.0677,-0.0677,0,0.0066,0.0086,0.0079,0.009,0.0111,0.0078,0.0093,0.006,0.004,0.0071,-0.004,-0.0016,-0.0204,-0.0257,-0.0387,-0.0466,-0.0495,-0.0581,-0.0594,-0.0567,-0.0558,-0.0731,-0.0827,-0.0678,-0.0678,-0.0677,-0.0677,0,0.0119,0.0118,0.0141,0.0135,0.0139,0.015,0.0161,0.0179,0.0153,0.0196,0.0193,0.0125,0.0071,-0.0091,-0.0249,-0.0374,-0.0561,-0.0511,-0.0444,-0.0448,-0.0638,-0.0731,-0.0857,-0.0941,-0.0544,-0.0543,-0.0541,0,0.0144,0.0164,0.0179,0.0202,0.0201,0.022,0.0246,0.023,0.0262,0.031,0.035,0.0319,0.034,0.0151,-0.0079,-0.0273,-0.047,-0.0391,-0.0468,-0.0625,-0.0742,-0.0814,-0.0883,-0.0447,-0.0445,-0.0443,-0.0442,0,0.0183,0.019,0.0212,0.0264,0.0299,0.0342,0.0381,0.0438,0.0458,0.0543,0.0664,0.07,0.0526,0.0363,0.0085,-0.0073,-0.0499,-0.0361,-0.0566,-0.0699,-0.075,-0.0842,-0.0444,-0.0427,-0.0428,-0.0429,-0.043,-0.0431,0.0209,0.0239,0.028,0.0333,0.0386,0.0477,0.0558,0.0641,0.0775,0.0944,0.0934,0.1061,0.0744,0.0387,0.0127,-0.0338,-0.038,-0.0514,-0.0619,-0.0681,-0.0751,-0.0285,-0.0254,-0.0254,-0.0255,-0.0255,-0.0255,0,0.025,0.0296,0.0349,0.0436,0.0531,0.0535,0.0667,0.0788,0.1015,0.117,0.1317,0.1285,0.0894,0.044,-0.018,-0.0546,-0.0727,-0.0763,-0.0917,-0.0982,-0.0609,-0.0595,-0.0583,-0.0583,-0.0583,-0.0583,-0.0583,-0.0583,0.0276,0.0349,0.0389,0.0556,0.0631,0.0794,0.0898,0.1092,0.124,0.1517,0.1637,0.1672,0.1347,0.0167,-0.0678,-0.0889,-0.119,-0.1207,-0.1385,-0.1195,-0.1183,-0.1171,-0.1185,-0.1297,-0.1298,-0.1727,-0.1732,-0.1735]}],[{"header":{"parameterUnit":"m.s-1","parameterCategory":2,"la1":30.2991,"la2":30.254,"lo1":-89.0895,"lo2":-89.0444,"dy":0.0017,"dx":0.0017,"nx":28,"ny":28,"refTime":"2023-09-05T21:00:00:Z","depth":"2","parameterNumber":2,"parameterNumberName":"U-component_of_CURRENTS"},"data":[0,0,0,0,0,0,0,0,0,0,0,0,0,0,0,0,0,0,0,0,0,0,0,0,0,0,0,0,0,0,0,0,0,0,0,0,0,0,0,0,0,0,0,0,0,0,0,0,0,0,0,0,0,0,0,0,0,0,0.1664,0.1665,0,0.1724,0.1725,0.1725,0.1766,0.1767,0.1767,0.1767,0.1786,0.1786,0.1786,0,0,0,0,0,0,0,0,0,0,0,0,0,0.1576,0.1577,0.1664,0.1665,0.1666,0.1724,0.1725,0.1725,0.1766,0.1767,0.1767,0.1768,0.1786,0.1786,0.1786,0,0,0,0,0,0,0,0,0,0,0,0,0,0.1622,0.1578,0.1664,0.1694,0.1697,0.1724,0.1725,0.1726,0.1766,0.1767,0.1767,0.1768,0.1786,0.1786,0.1786,0.1776,0,0,0.1787,0.1787,0,0,0,0,0,0,0,0,0.1619,0.1625,0.1688,0.1692,0.1695,0.1739,0.17,0.1741,0.1766,0.1739,0.1767,0.1768,0.1766,0.1768,0.1778,0.1777,0.1778,0.1787,0.1787,0.1787,0.1787,0,0,0,0,0,0,0,0.1616,0.1623,0.1687,0.1689,0.1694,0.1701,0.1708,0.1708,0.1748,0.1742,0.1745,0.1752,0.1768,0.1777,0.1778,0.1778,0.1787,0.1787,0.1787,0.1787,0.1846,0.1847,0,0,0,0,0,0,0.161,0.162,0.1685,0.1689,0.1659,0.1702,0.171,0.1724,0.1749,0.1753,0.1752,0.1754,0.1777,0.1778,0.1779,0.1846,0.1787,0.1787,0.1787,0.1844,0.1846,0.1848,0,0,0,0,0,0,0.1608,0.1616,0.1683,0.1656,0.1665,0.1703,0.1718,0.1725,0.1745,0.1757,0.1761,0.1767,0.1777,0.1779,0.1814,0.1844,0.1787,0.1787,0.1843,0.1845,0.1847,0.1931,0,0,0,0,0,0,0.1605,0.1615,0.1625,0.1656,0.1666,0.1717,0.1718,0.1725,0.1749,0.1753,0.1771,0.1773,0.1778,0.1814,0.1815,0.1844,0.1788,0.1841,0.1844,0.1846,0.1926,0.1936,0.1944,0,0,0,0,0,0.1602,0.1621,0.1625,0.1633,0.1678,0.1719,0.1725,0.1753,0.1749,0.177,0.1792,0.1773,0.1831,0.1816,0.1816,0.1846,0.184,0.1843,0.1846,0.1923,0.1934,0.1944,0,0,0,0,0,0,0.1595,0.1627,0.1633,0.1662,0.1693,0.1726,0.1749,0.1755,0.1787,0.1794,0.1794,0.1799,0.1841,0.1828,0.1811,0.187,0.183,0.1834,0.1888,0.1899,0.1907,0.1908,0.1788,0,0,0,0,0,0.1594,0.1615,0.1647,0.1673,0.169,0.1715,0.1733,0.1754,0.1783,0.1798,0.1812,0.1828,0.1851,0.1864,0.1879,0.1908,0.1917,0.1925,0.1934,0.1941,0.1942,0.1974,0.1986,0.1858,0.1858,0.1858,0,0,0.1599,0.1619,0.1632,0.1672,0.1698,0.1745,0.1729,0.1769,0.181,0.1792,0.1852,0.1858,0.1865,0.1912,0.1927,0.1908,0.1993,0.1945,0.1952,0.1949,0.1979,0.1991,0.2002,0.186,0.186,0.186,0,0,0.1626,0.1638,0.1669,0.17,0.1743,0.1768,0.178,0.1821,0.1843,0.1892,0.1896,0.192,0.1951,0.1971,0.198,0.2038,0.2037,0.2042,0.2089,0.2121,0.2132,0.2142,0.2216,0.2232,0.2047,0.2048,0.2048,0,0.1636,0.1676,0.1685,0.173,0.1765,0.1781,0.1835,0.1862,0.1912,0.193,0.1924,0.1979,0.1979,0.2034,0.2063,0.2057,0.2091,0.2052,0.2134,0.2143,0.2151,0.2224,0.224,0.2052,0.2052,0.2051,0.2051,0,0.1695,0.1727,0.1753,0.1816,0.1853,0.1903,0.1943,0.1977,0.1995,0.2019,0.2068,0.2077,0.2108,0.2112,0.2109,0.2169,0.2184,0.2142,0.2108,0.2169,0.2243,0.2258,0.2058,0.2057,0.2055,0.2054,0,0,0.1721,0.1784,0.1792,0.1827,0.1904,0.1939,0.2008,0.2068,0.2102,0.214,0.2186,0.222,0.2213,0.2222,0.2217,0.2239,0.2338,0.2224,0.2223,0.2302,0.2457,0.2411,0.2423,0.2316,0.2318,0.2319,0.2503,0,0.1772,0.1839,0.1876,0.1962,0.2001,0.2047,0.2105,0.2156,0.2188,0.2236,0.2243,0.2289,0.2261,0.2279,0.2302,0.2326,0.2374,0.2295,0.2382,0.2386,0.2339,0.2436,0.2242,0.2383,0.2517,0.252,0.2522,0,0.1813,0.1854,0.1929,0.2008,0.2036,0.2101,0.2182,0.2234,0.2295,0.2316,0.2357,0.2372,0.2436,0.238,0.2477,0.2435,0.2459,0.2467,0.2474,0.2404,0.2365,0.2334,0.2405,0.2546,0.2544,0.2542,0.2541,0,0.1783,0.1887,0.1941,0.1976,0.2077,0.2129,0.2188,0.2254,0.2304,0.237,0.2421,0.2476,0.2532,0.2556,0.2605,0.2552,0.2705,0.2628,0.262,0.2619,0.2454,0.2434,0.2692,0.2691,0.2691,0.2691,0.269,0,0.1798,0.1843,0.1935,0.1966,0.2062,0.212,0.2209,0.2266,0.2344,0.2412,0.2463,0.2525,0.2577,0.267,0.2668,0.2724,0.2773,0.2658,0.2662,0.2483,0.2464,0.258,0.2564,0.2697,0.2696,0.2695,0.2693,0,0.1743,0.18,0.1881,0.1999,0.2045,0.2109,0.2244,0.2285,0.2372,0.2467,0.2505,0.2617,0.2722,0.2793,0.2864,0.2827,0.2858,0.2861,0.2678,0.2653,0.2738,0.2725,0.2862,0.2862,0.2862,0.2862,0.2862,0,0.1718,0.1747,0.1889,0.1952,0.2021,0.2119,0.2174,0.2282,0.2329,0.2507,0.2546,0.2707,0.2757,0.2886,0.2876,0.2919,0.2921,0.2744,0.2569,0.2765,0.2756,0.2742,0.273,0.2418,0.2415,0.2412,0.2409,0,0.1711,0.1763,0.1844,0.1931,0.2024,0.2099,0.2191,0.223,0.2348,0.2428,0.2522,0.2584,0.2745,0.2682,0.2776,0.2747,0.2711,0.268,0.2957,0.2386,0.2355,0.2342,0.2343,0.2382,0.2385,0.2387,0.2388,0.2389,0.1721,0.1781,0.1868,0.1951,0.2009,0.2026,0.206,0.2125,0.2175,0.2258,0.2388,0.242,0.2506,0.2506,0.2466,0.2455,0.2603,0.2464,0.2469,0.2479,0.2376,0.2343,0.2354,0.2356,0.2358,0.236,0.2362,0,0.1743,0.181,0.1873,0.1942,0.1909,0.1983,0.2025,0.1999,0.1986,0.2111,0.2159,0.2039,0.2042,0.2137,0.2084,0.2095,0.2034,0.1999,0.1897,0.1929,0.1956,0.1819,0.1653,0.165,0.1648,0.1645,0,0,0.1781,0.1823,0.1836,0.1807,0.1827,0.1789,0.1787,0.1753,0.1794,0.1749,0.178,0.1957,0.2084,0.1831,0.1825,0.1731,0.1802,0.1666,0.2248,0.2162,0.2184,0.2255,0.2086,0,0,0,0,0]},{"header":{"parameterUnit":"m.s-1","parameterCategory":2,"la1":30.2991,"la2":30.254,"lo1":-89.0895,"lo2":-89.0444,"dy":0.0017,"dx":0.0017,"nx":28,"ny":28,"refTime":"2023-09-05T21:00:00:Z","depth":"2","parameterNumber":3,"parameterNumberName":"V-component_of_CURRENTS"},"data":[0,0,0,0,0,0,0,0,0,0,0,0,0,0,0,0,0,0,0,0,0,0,0,0,0,0,0,0,0,0,0,0,0,0,0,0,0,0,0,0,0,0,0,0,0,0,0,0,0,0,0,0,0,0,0,0,0,0,0.0048,0.0047,0,-0.0084,-0.0086,-0.0087,-0.0182,-0.0182,-0.0183,-0.0183,-0.0248,-0.0249,-0.025,0,0,0,0,0,0,0,0,0,0,0,0,0,0.0114,0.0114,0.0048,0.0047,0.0045,-0.0084,-0.0086,-0.0088,-0.0182,-0.0182,-0.0183,-0.0184,-0.0247,-0.0249,-0.025,0,0,0,0,0,0,0,0,0,0,0,0,0,0.0042,0.0114,0.0048,-0.0015,-0.0022,-0.0083,-0.0086,-0.0088,-0.0182,-0.0182,-0.0183,-0.0184,-0.0247,-0.0249,-0.025,-0.0245,0,0,-0.0256,-0.0257,0,0,0,0,0,0,0,0,0.0046,0.0039,-0.0005,-0.0011,-0.0019,-0.0115,-0.0086,-0.0137,-0.0181,-0.0124,-0.0183,-0.0184,-0.0195,-0.0201,-0.0229,-0.0248,-0.0251,-0.0256,-0.0257,-0.0258,-0.0259,0,0,0,0,0,0,0,0.0052,0.0044,-0.0007,-0.0006,-0.0015,-0.0073,-0.0083,-0.0097,-0.0154,-0.0129,-0.0135,-0.0146,-0.0199,-0.0227,-0.0231,-0.0252,-0.0256,-0.0258,-0.0259,-0.026,-0.0339,-0.034,0,0,0,0,0,0,0.0079,0.005,-0.0003,-0.0011,0.0015,-0.0073,-0.0085,-0.0085,-0.0155,-0.0167,-0.0145,-0.015,-0.0223,-0.0228,-0.0233,-0.0278,-0.0258,-0.026,-0.0261,-0.0338,-0.0339,-0.034,0,0,0,0,0,0,0.0082,0.0077,0.0003,0.0018,0.0004,-0.0072,-0.0073,-0.0088,-0.0132,-0.0168,-0.0179,-0.0176,-0.0224,-0.023,-0.028,-0.0279,-0.0261,-0.0262,-0.0337,-0.0338,-0.034,-0.0338,0,0,0,0,0,0,0.0084,0.0078,0.0076,0.002,0.0005,-0.0043,-0.0072,-0.0089,-0.0135,-0.0143,-0.0197,-0.0204,-0.0225,-0.0277,-0.0282,-0.0281,-0.0264,-0.0336,-0.0338,-0.0339,-0.0336,-0.0339,-0.0341,0,0,0,0,0,0.0087,0.0083,0.0077,0.0069,0.0008,-0.0044,-0.0058,-0.0117,-0.0136,-0.016,-0.0209,-0.0203,-0.0292,-0.028,-0.0285,-0.0285,-0.0335,-0.0337,-0.0339,-0.0335,-0.0338,-0.0341,0,0,0,0,0,0,0.01,0.0072,0.0063,0.0049,0.0006,-0.0059,-0.0089,-0.012,-0.0179,-0.0189,-0.0223,-0.0234,-0.0275,-0.0284,-0.027,-0.0316,-0.0309,-0.0312,-0.0304,-0.0307,-0.0309,-0.0287,-0.0265,0,0,0,0,0,0.0109,0.0102,0.0063,0.0048,0.0032,-0.0026,-0.0058,-0.0094,-0.0147,-0.0175,-0.0212,-0.025,-0.0285,-0.0301,-0.0333,-0.0355,-0.0363,-0.0358,-0.036,-0.0362,-0.0349,-0.0389,-0.0393,-0.0348,-0.0348,-0.0348,0,0,0.0106,0.0092,0.0084,0.005,0.0012,-0.0012,-0.0049,-0.0097,-0.012,-0.0168,-0.0219,-0.0262,-0.0297,-0.0335,-0.0351,-0.0343,-0.0379,-0.0365,-0.0366,-0.0352,-0.0392,-0.0396,-0.04,-0.035,-0.0349,-0.0349,0,0,0.0109,0.0089,0.0091,0.0063,0.002,-0.0018,-0.0028,-0.0091,-0.0125,-0.0174,-0.0218,-0.0268,-0.0313,-0.0348,-0.0366,-0.0396,-0.0395,-0.0402,-0.0389,-0.0428,-0.0431,-0.0435,-0.0445,-0.045,-0.0397,-0.0397,-0.0397,0,0.0104,0.011,0.0077,0.0073,0.0047,-0.0013,-0.0026,-0.0067,-0.0142,-0.0164,-0.0187,-0.028,-0.0316,-0.0358,-0.038,-0.0398,-0.0414,-0.0373,-0.0429,-0.0433,-0.0436,-0.0446,-0.0451,-0.0397,-0.0397,-0.0397,-0.0397,0,0.0114,0.0114,0.0106,0.0089,0.0056,0.0025,-0.002,-0.0056,-0.01,-0.0142,-0.0201,-0.0268,-0.0318,-0.0341,-0.0372,-0.0413,-0.0414,-0.0432,-0.0417,-0.044,-0.045,-0.0455,-0.0397,-0.0397,-0.0397,-0.0397,0,0,0.0121,0.0114,0.0117,0.0117,0.006,0.0037,0.0003,-0.0044,-0.0056,-0.0134,-0.0154,-0.0246,-0.0287,-0.0311,-0.0358,-0.0398,-0.0446,-0.0424,-0.0427,-0.0424,-0.0516,-0.0464,-0.0464,-0.0479,-0.048,-0.0481,-0.0511,0,0.0136,0.0157,0.0133,0.0125,0.0125,0.0065,0.0044,-0.0005,-0.0053,-0.0087,-0.0161,-0.0204,-0.0271,-0.0295,-0.0352,-0.0417,-0.046,-0.0435,-0.0503,-0.0504,-0.0446,-0.0468,-0.0444,-0.0465,-0.0516,-0.0517,-0.0517,0,0.0163,0.0175,0.0184,0.017,0.0161,0.0133,0.0092,0.0066,0.0008,-0.0023,-0.0087,-0.0141,-0.0215,-0.0264,-0.0387,-0.0369,-0.0444,-0.0497,-0.05,-0.0451,-0.046,-0.0453,-0.0472,-0.0525,-0.0525,-0.0524,-0.0524,0,0.0212,0.021,0.0221,0.021,0.0179,0.016,0.0129,0.0078,0.0079,0.0015,0.0023,-0.0091,-0.0115,-0.024,-0.0344,-0.0378,-0.0453,-0.0513,-0.0535,-0.0531,-0.0521,-0.0514,-0.0604,-0.0604,-0.0604,-0.0604,-0.0604,0,0.0242,0.0253,0.0243,0.0247,0.0247,0.0206,0.0202,0.0162,0.0142,0.0176,0.0059,0.009,-0.0113,-0.0172,-0.0307,-0.0405,-0.0426,-0.0526,-0.0538,-0.0518,-0.0511,-0.0572,-0.0568,-0.0605,-0.0605,-0.0604,-0.0604,0,0.029,0.0287,0.0297,0.0276,0.0271,0.0265,0.0255,0.0275,0.0243,0.0294,0.0286,0.0219,0.0143,-0.0028,-0.0198,-0.0321,-0.0442,-0.0473,-0.0415,-0.042,-0.0514,-0.051,-0.0535,-0.0533,-0.0532,-0.0531,-0.053,0,0.0313,0.033,0.033,0.0342,0.0322,0.0324,0.0347,0.0317,0.0366,0.0409,0.0463,0.0401,0.0393,0.0174,-0.007,-0.0292,-0.035,-0.0401,-0.0477,-0.0498,-0.0508,-0.0506,-0.0504,-0.0468,-0.0467,-0.0466,-0.0465,0,0.034,0.0339,0.035,0.0402,0.0413,0.0462,0.0498,0.0564,0.0588,0.0643,0.0745,0.0738,0.0526,0.0308,0.0003,-0.0144,-0.0374,-0.0384,-0.0427,-0.0474,-0.0434,-0.0444,-0.0445,-0.0455,-0.0456,-0.0457,-0.0457,-0.0458,0.0354,0.037,0.0406,0.0451,0.051,0.0628,0.0686,0.0767,0.0878,0.0976,0.0964,0.0948,0.0667,0.0279,0.0022,-0.0264,-0.0283,-0.0404,-0.0409,-0.0415,-0.0386,-0.0345,-0.0343,-0.0343,-0.0343,-0.0344,-0.0344,0,0.0375,0.0409,0.0463,0.0545,0.0664,0.067,0.0822,0.0898,0.1065,0.1115,0.1159,0.0936,0.0679,0.0366,-0.0059,-0.0311,-0.0366,-0.0374,-0.0412,-0.0418,-0.0424,-0.0399,-0.0358,-0.0359,-0.036,-0.036,0,0,0.0384,0.0453,0.0498,0.0684,0.0761,0.0915,0.1018,0.1123,0.1192,0.1255,0.1226,0.1127,0.0765,0.0458,0.0109,-0.0128,-0.0213,-0.0164,-0.0124,-0.0133,-0.0137,-0.0409,-0.0371,0,0,0,0,0]}],[{"header":{"parameterUnit":"m.s-1","parameterCategory":2,"la1":30.2991,"la2":30.254,"lo1":-89.0895,"lo2":-89.0444,"dy":0.0017,"dx":0.0017,"nx":28,"ny":28,"refTime":"2023-09-05T21:00:00:Z","depth":"4","parameterNumber":2,"parameterNumberName":"U-component_of_CURRENTS"},"data":[0,0,0,0,0,0,0,0,0,0,0,0,0,0,0,0,0,0,0,0,0,0,0,0,0,0,0,0,0,0,0,0,0,0,0,0,0,0,0,0,0,0,0,0,0,0,0,0,0,0,0,0,0,0,0,0,0,0,0.0824,0.0824,0,0.0868,0.0869,0.0869,0.0896,0.0897,0.0897,0.0898,0.0985,0.0986,0.0988,0,0,0,0,0,0,0,0,0,0,0,0,0,0.0752,0.0753,0.0823,0.0824,0.0825,0.0868,0.0869,0.0869,0.0896,0.0897,0.0897,0.0898,0.0984,0.0986,0.0989,0,0,0,0,0,0,0,0,0,0,0,0,0,0.0786,0.0753,0.0823,0.0846,0.0849,0.0868,0.0869,0.0869,0.0896,0.0897,0.0897,0.0898,0.0983,0.0986,0.0989,0.0995,0,0,0.0998,0.0999,0,0,0,0,0,0,0,0,0.0784,0.0788,0.0842,0.0845,0.0848,0.088,0.0876,0.0914,0.0896,0.0875,0.0898,0.0898,0.0955,0.096,0.0963,0.0999,0.1002,0.0998,0.1,0.1001,0.1002,0,0,0,0,0,0,0,0.0782,0.0786,0.0838,0.0843,0.0846,0.0851,0.0856,0.0883,0.091,0.0877,0.088,0.0889,0.0957,0.096,0.0965,0.1004,0.0998,0.1001,0.1002,0.1003,0.1113,0.1114,0,0,0,0,0,0,0.0782,0.0784,0.0837,0.084,0.082,0.0852,0.0858,0.0867,0.0908,0.0916,0.0889,0.089,0.0954,0.0962,0.0968,0.1035,0.1001,0.1004,0.1005,0.1112,0.1113,0.1114,0,0,0,0,0,0,0.078,0.0786,0.0835,0.0815,0.0822,0.0853,0.0862,0.0867,0.0894,0.0917,0.0925,0.0914,0.0955,0.0964,0.1007,0.1037,0.1005,0.1008,0.111,0.1112,0.1114,0.1132,0,0,0,0,0,0,0.0778,0.0785,0.0799,0.0815,0.0824,0.086,0.0862,0.0868,0.0899,0.0902,0.0941,0.0948,0.0956,0.1002,0.1009,0.104,0.101,0.1109,0.1111,0.1113,0.113,0.1135,0.1138,0,0,0,0,0,0.0775,0.079,0.0799,0.0807,0.0839,0.0861,0.0866,0.0887,0.09,0.0913,0.0939,0.0948,0.1021,0.1005,0.1013,0.1046,0.1108,0.111,0.1113,0.1129,0.1134,0.1138,0,0,0,0,0,0,0.0763,0.0795,0.0806,0.0829,0.0851,0.0867,0.0886,0.09,0.093,0.0942,0.096,0.0969,0.1024,0.1029,0.1011,0.1084,0.1068,0.1072,0.1077,0.1082,0.1086,0.1113,0.1012,0,0,0,0,0,0.0767,0.0791,0.0815,0.0836,0.0849,0.0872,0.0888,0.0904,0.0928,0.0943,0.0969,0.1001,0.1036,0.1054,0.1086,0.1119,0.114,0.1147,0.1151,0.1154,0.1182,0.1221,0.1231,0.1123,0.1123,0.1123,0,0,0.0769,0.079,0.0804,0.0836,0.0855,0.0878,0.0883,0.0915,0.0941,0.0949,0.0997,0.1024,0.1052,0.1093,0.1118,0.1102,0.1195,0.1157,0.116,0.1187,0.1225,0.1235,0.1245,0.1125,0.1124,0.1124,0,0,0.0779,0.0803,0.0826,0.0847,0.0884,0.0897,0.0912,0.0943,0.0967,0.101,0.1028,0.107,0.1116,0.114,0.1158,0.1204,0.1221,0.1216,0.125,0.1287,0.1296,0.1304,0.1336,0.1347,0.1208,0.1208,0.1208,0,0.0779,0.0811,0.0835,0.0861,0.0882,0.0909,0.0933,0.096,0.1002,0.103,0.1033,0.1122,0.1142,0.1199,0.1218,0.1215,0.1239,0.1226,0.1292,0.1301,0.1309,0.134,0.1352,0.1209,0.1209,0.1209,0.1208,0,0.0805,0.0833,0.0849,0.0891,0.0915,0.0942,0.0977,0.1012,0.1045,0.1075,0.1151,0.1177,0.1231,0.1241,0.1248,0.132,0.1318,0.1297,0.1278,0.1321,0.135,0.1363,0.1211,0.121,0.121,0.1209,0,0,0.0798,0.0854,0.0864,0.0878,0.0934,0.0948,0.1004,0.1055,0.1099,0.115,0.1207,0.1273,0.1301,0.1325,0.1336,0.1369,0.1441,0.1366,0.1367,0.1396,0.1529,0.1451,0.1457,0.1431,0.1434,0.1436,0.1522,0,0.0812,0.0848,0.0886,0.0922,0.0937,0.0985,0.1031,0.1085,0.1139,0.12,0.1253,0.132,0.1327,0.1361,0.1398,0.144,0.1477,0.142,0.1487,0.149,0.1412,0.147,0.1444,0.1531,0.1534,0.1536,0.1538,0,0.0832,0.0849,0.0884,0.0927,0.0942,0.0978,0.1052,0.1099,0.1196,0.1247,0.1326,0.1372,0.1457,0.144,0.1547,0.1513,0.154,0.1558,0.156,0.1497,0.1435,0.1483,0.156,0.1558,0.1557,0.1555,0.1554,0,0.08,0.0849,0.0871,0.0888,0.0945,0.0984,0.1027,0.112,0.1175,0.1289,0.1348,0.1441,0.1506,0.1559,0.162,0.1595,0.1718,0.1673,0.1628,0.1622,0.1656,0.1646,0.175,0.175,0.175,0.1749,0.1749,0,0.0794,0.0814,0.0859,0.0869,0.0903,0.0963,0.1029,0.1095,0.1205,0.1273,0.1375,0.1447,0.1546,0.1621,0.165,0.1689,0.1746,0.1664,0.1649,0.166,0.1649,0.1664,0.1653,0.1753,0.1752,0.1751,0.1751,0,0.0761,0.0797,0.081,0.0865,0.0889,0.0914,0.102,0.1075,0.1191,0.1285,0.1333,0.1484,0.1598,0.1673,0.1768,0.1728,0.1765,0.1758,0.1787,0.1767,0.1635,0.1624,0.1717,0.1715,0.1714,0.1712,0.1711,0,0.0744,0.075,0.0788,0.0798,0.083,0.0884,0.0937,0.1059,0.1125,0.1295,0.1339,0.1497,0.1583,0.167,0.1743,0.18,0.1779,0.1771,0.1694,0.1661,0.1637,0.1629,0.162,0.1709,0.1709,0.1708,0.1708,0,0.0693,0.0714,0.0711,0.0736,0.0781,0.0828,0.0913,0.096,0.1105,0.1214,0.1339,0.142,0.1546,0.1637,0.1702,0.1727,0.1759,0.1754,0.1757,0.1684,0.1652,0.1628,0.1621,0.1702,0.1703,0.1704,0.1704,0,0.0644,0.0629,0.0634,0.0658,0.0713,0.0772,0.0816,0.0915,0.1002,0.1198,0.1234,0.1403,0.1533,0.1602,0.1653,0.1687,0.166,0.1587,0.1598,0.1604,0.1528,0.1468,0.1473,0,0,0,0,0,0.0598,0.058,0.057,0.059,0.0648,0.0698,0.0808,0.0865,0.1009,0.1075,0.1156,0.1273,0.1391,0.1484,0.1502,0.1594,0.165,0.1603,0.1565,0.1673,0.1679,0.1599,0,0,0,0,0,0,0.0561,0.0542,0.0535,0.0543,0.0569,0.0636,0.0716,0.0801,0.0853,0.1001,0.1092,0.1191,0.1342,0.138,0.1479,0.1502,0.1451,0.1706,0.1702,0.1669,0.1675,0.168,0.16,0,0,0,0,0]},{"header":{"parameterUnit":"m.s-1","parameterCategory":2,"la1":30.2991,"la2":30.254,"lo1":-89.0895,"lo2":-89.0444,"dy":0.0017,"dx":0.0017,"nx":28,"ny":28,"refTime":"2023-09-05T21:00:00:Z","depth":"4","parameterNumber":3,"parameterNumberName":"V-component_of_CURRENTS"},"data":[0,0,0,0,0,0,0,0,0,0,0,0,0,0,0,0,0,0,0,0,0,0,0,0,0,0,0,0,0,0,0,0,0,0,0,0,0,0,0,0,0,0,0,0,0,0,0,0,0,0,0,0,0,0,0,0,0,0,0.0378,0.0377,0,0.0338,0.0337,0.0336,0.0314,0.0315,0.0315,0.0315,0.0217,0.0215,0.0212,0,0,0,0,0,0,0,0,0,0,0,0,0,0.0377,0.0377,0.0378,0.0377,0.0377,0.0338,0.0337,0.0336,0.0314,0.0315,0.0315,0.0315,0.0218,0.0215,0.0212,0,0,0,0,0,0,0,0,0,0,0,0,0,0.0359,0.0377,0.0378,0.0363,0.0362,0.0338,0.0337,0.0336,0.0314,0.0315,0.0315,0.0315,0.0219,0.0215,0.0211,0.018,0,0,0.0199,0.0197,0,0,0,0,0,0,0,0,0.036,0.0358,0.0366,0.0364,0.0363,0.0334,0.0301,0.0282,0.0314,0.033,0.0315,0.0315,0.0252,0.0246,0.0235,0.0176,0.0172,0.0198,0.0196,0.0194,0.0193,0,0,0,0,0,0,0,0.0361,0.036,0.0359,0.0365,0.0364,0.0339,0.0337,0.0297,0.0287,0.0328,0.0327,0.0327,0.0251,0.0239,0.0232,0.017,0.0198,0.0195,0.0192,0.019,0.0131,0.0132,0,0,0,0,0,0,0.0374,0.0361,0.036,0.0358,0.0365,0.0339,0.0337,0.034,0.0288,0.0282,0.0327,0.0326,0.0246,0.0237,0.0228,0.0229,0.0194,0.019,0.0188,0.013,0.0132,0.0133,0,0,0,0,0,0,0.0374,0.0375,0.0362,0.0361,0.0358,0.034,0.0343,0.034,0.0335,0.0288,0.028,0.0328,0.0245,0.0234,0.0208,0.0223,0.0188,0.0184,0.0129,0.0131,0.0132,0.0203,0,0,0,0,0,0,0.0375,0.0375,0.0382,0.0362,0.0358,0.0355,0.0343,0.0339,0.0335,0.0334,0.0286,0.0277,0.0245,0.0214,0.0204,0.0217,0.0181,0.0128,0.013,0.0132,0.02,0.0207,0.0213,0,0,0,0,0,0.0375,0.0382,0.0382,0.0382,0.0369,0.0355,0.0351,0.0337,0.0335,0.0333,0.0309,0.0279,0.0218,0.0211,0.0199,0.0211,0.0127,0.0129,0.0131,0.0197,0.0206,0.0213,0,0,0,0,0,0,0.0382,0.038,0.038,0.0386,0.0376,0.0353,0.035,0.0343,0.0322,0.0321,0.028,0.0269,0.0252,0.0223,0.0217,0.0202,0.0171,0.0171,0.0225,0.0233,0.024,0.0239,0.0178,0,0,0,0,0,0.0389,0.0396,0.0387,0.0391,0.0389,0.0372,0.0366,0.0358,0.0338,0.0329,0.03,0.0273,0.0249,0.0235,0.0204,0.0189,0.0148,0.0193,0.0199,0.0205,0.0198,0.0162,0.0165,0.0139,0.0139,0.0139,0,0,0.0392,0.0393,0.0396,0.0394,0.0384,0.0382,0.0368,0.0363,0.0365,0.032,0.0313,0.0287,0.0249,0.0238,0.0229,0.0217,0.0191,0.0208,0.0213,0.0202,0.0165,0.0167,0.0169,0.0141,0.014,0.014,0,0,0.0394,0.0405,0.0406,0.0404,0.0398,0.0392,0.0395,0.0379,0.0378,0.0366,0.0343,0.0329,0.0287,0.0272,0.0257,0.0279,0.0224,0.0277,0.031,0.0277,0.0278,0.0279,0.023,0.0226,0.0284,0.0285,0.0285,0,0.0397,0.0406,0.0403,0.0404,0.0413,0.0401,0.0408,0.04,0.038,0.0386,0.0372,0.0334,0.0302,0.0297,0.031,0.0292,0.0259,0.0284,0.0284,0.0284,0.0284,0.0233,0.0228,0.0288,0.0288,0.0287,0.0287,0,0.0394,0.041,0.0411,0.0417,0.0422,0.0428,0.0427,0.0432,0.0433,0.0425,0.0421,0.0383,0.0362,0.036,0.0337,0.0332,0.0304,0.0294,0.0264,0.0291,0.0236,0.0229,0.0294,0.0292,0.0291,0.029,0,0,0.0379,0.0407,0.0408,0.0434,0.0439,0.0449,0.046,0.0473,0.049,0.0468,0.0479,0.045,0.0434,0.0416,0.0394,0.0369,0.0338,0.0336,0.0332,0.0285,0.0251,0.0211,0.0198,0.033,0.033,0.0329,0.0214,0,0.0381,0.0406,0.0416,0.0453,0.0473,0.0486,0.0503,0.0514,0.0516,0.0518,0.0492,0.0483,0.0455,0.0451,0.0422,0.0356,0.0323,0.0369,0.0232,0.0228,0.0187,0.019,0.0327,0.0208,0.0206,0.0205,0.0204,0,0.037,0.04,0.0438,0.0502,0.0512,0.0533,0.0582,0.0594,0.0593,0.0591,0.0577,0.0543,0.0506,0.0478,0.0373,0.0404,0.0331,0.0277,0.0271,0.02,0.0174,0.0174,0.019,0.0191,0.0192,0.0193,0.0194,0,0.0373,0.042,0.0466,0.0483,0.0537,0.0573,0.0603,0.062,0.0646,0.0637,0.0636,0.0585,0.055,0.0464,0.0344,0.0359,0.0211,0.0217,0.0109,0.0104,0.0143,0.0144,0.0136,0.0136,0.0136,0.0137,0.0137,0,0.0375,0.0414,0.0481,0.0509,0.0582,0.0605,0.067,0.0688,0.0704,0.0719,0.0677,0.0655,0.0544,0.0445,0.0346,0.0193,0.0207,0.0102,0.0072,0.0176,0.0182,0.0137,0.0139,0.0132,0.0133,0.0134,0.0135,0,0.0371,0.0405,0.0476,0.0556,0.0588,0.0645,0.0729,0.0765,0.0769,0.0781,0.0776,0.0698,0.0563,0.0434,0.0271,0.0187,0.0053,-0.0006,0.0095,0.0075,-0.0031,-0.0024,-0.0129,-0.0131,-0.0133,-0.0135,-0.0136,0,0.0371,0.0405,0.0518,0.057,0.0616,0.07,0.0754,0.0799,0.0822,0.0797,0.0788,0.0673,0.0598,0.0338,0.0204,-0.0004,-0.0027,-0.0099,-0.0045,-0.004,-0.0058,-0.0048,-0.0039,-0.0139,-0.014,-0.014,-0.0141,0,0.0385,0.0429,0.0493,0.0598,0.0679,0.0764,0.0831,0.0849,0.0868,0.0872,0.0785,0.0658,0.0493,0.0314,0.014,-0.0,-0.0048,-0.012,-0.0116,-0.0066,-0.0054,-0.0068,-0.0056,-0.0148,-0.0147,-0.0146,-0.0146,0,0.0403,0.0453,0.0537,0.0626,0.0722,0.079,0.0834,0.0847,0.0871,0.0827,0.0789,0.0632,0.0542,0.0312,0.0156,0.0006,-0.0016,-0.0046,-0.0046,-0.004,0.0025,0.0056,-0.004,0,0,0,0,0,0.0421,0.0471,0.0556,0.0652,0.0738,0.0793,0.0864,0.0888,0.0891,0.0833,0.0813,0.0659,0.042,0.0321,0.0163,0.0122,-0.0042,-0.0068,-0.0075,-0.0187,-0.0179,-0.0121,0,0,0,0,0,0,0.0437,0.0513,0.0553,0.0645,0.0702,0.08,0.0847,0.0854,0.0816,0.0793,0.067,0.0612,0.0384,0.0501,0.0154,0.0109,0.0083,-0.0175,-0.0178,-0.0191,-0.0184,-0.0178,-0.0116,0,0,0,0,0]}]]